CW5193 New Chelsea NF CA current weather conditions

sailwx.info

Wind from 064 at 5 knots gusting 9

Air temperature 9.4° C
Dewpoint 8.8° C

Last reported at 2014-Oct-25 03:43 UTC.
Time now 2014-Oct-25 04:19 UTC

Location: N 48°02' W 053°13'.
View on Google Maps.

See reports from other nearby stations

  
Tides and Currents Weather Stations Pressure Air Temp Water Temp Dewpoint Dewpoint Depression Visibility Wind Speed Wind Dir Waves Ship Positions
date/time (UTC)wind fromknots sea level pressurealtimeterstation pressurevisibilityair tempwater tempwave heightnotes
2014-Oct-25 03:43 064 5 gusting 9 9.4
2014-Oct-25 03:33 068 7 gusting 8 9.4
2014-Oct-25 03:23 061 6 gusting 9 9.4
2014-Oct-25 03:13 058 5 gusting 6 9.4
2014-Oct-25 03:03 057 4 gusting 5 9.4
2014-Oct-25 02:53 065 3 gusting 5 9.4
2014-Oct-25 02:43 064 4 gusting 5 9.4
2014-Oct-25 02:33 065 5 gusting 6 9.4
2014-Oct-25 02:23 068 5 gusting 6 10.0
2014-Oct-25 02:13 072 4 gusting 8 10.0
2014-Oct-25 02:03 064 5 gusting 8 10.0
2014-Oct-25 01:53 063 6 gusting 7 10.0
2014-Oct-25 01:43 061 4 gusting 6 10.0
2014-Oct-25 01:33 067 4 gusting 7 10.0
2014-Oct-25 01:23 064 4 gusting 7 10.0
2014-Oct-25 01:13 061 5 gusting 6 10.0
2014-Oct-25 01:03 071 4 gusting 6 10.0
2014-Oct-25 00:53 075 5 gusting 7 10.0
2014-Oct-25 00:43 074 3 gusting 6 10.0
2014-Oct-25 00:33 015 10.0
2014-Oct-25 00:23 016 2 gusting 8 10.0
2014-Oct-25 00:13 360 6 gusting 12 10.0
2014-Oct-25 00:03 082 6 gusting 13 10.0
2014-Oct-24 23:53 090 8 gusting 12 10.0
2014-Oct-24 23:43 074 8 gusting 13 10.0
2014-Oct-24 23:33 094 10 gusting 16 10.0
2014-Oct-24 23:23 075 8 gusting 12 10.0
2014-Oct-24 23:13 068 7 gusting 14 10.0
2014-Oct-24 23:03 048 5 gusting 13 10.0
2014-Oct-24 22:53 025 10 gusting 16 10.0
2014-Oct-24 22:43 053 11 gusting 15 10.0
2014-Oct-24 22:33 360 6 gusting 13 10.0
2014-Oct-24 22:23 081 9 gusting 16 10.0
2014-Oct-24 22:13 117 8 gusting 12 10.0
2014-Oct-24 22:03 119 9 gusting 14 10.0
2014-Oct-24 21:53 092 7 gusting 16 10.0
2014-Oct-24 21:43 104 10 gusting 16 10.0
2014-Oct-24 21:33 084 13 gusting 18 10.0
2014-Oct-24 21:23 104 12 gusting 16 10.0
2014-Oct-24 21:13 106 12 gusting 16 10.0
2014-Oct-24 21:03 084 14 gusting 19 10.0
2014-Oct-24 20:53 102 13 gusting 16 10.0
2014-Oct-24 20:43 126 10 gusting 16 10.0
2014-Oct-24 20:33 109 13 gusting 18 10.0
2014-Oct-24 20:23 110 14 gusting 20 10.0
2014-Oct-24 20:13 101 16 gusting 23 10.0
2014-Oct-24 20:03 113 15 gusting 19 10.0
2014-Oct-24 19:53 096 13 gusting 19 10.0
2014-Oct-24 19:43 088 13 gusting 19 10.0
2014-Oct-24 19:33 092 17 gusting 20 10.0
2014-Oct-24 19:23 107 12 gusting 21 10.6
2014-Oct-24 19:13 084 13 gusting 19 10.6
2014-Oct-24 19:03 071 13 gusting 19 10.6
2014-Oct-24 18:53 094 15 gusting 22 10.6
2014-Oct-24 18:43 097 15 gusting 22 10.6
2014-Oct-24 18:33 086 13 gusting 21 10.6
2014-Oct-24 18:23 095 14 gusting 21 10.6
2014-Oct-24 18:13 107 14 gusting 21 10.6
2014-Oct-24 18:03 076 13 gusting 19 10.6
2014-Oct-24 17:53 082 13 gusting 23 10.6
2014-Oct-24 17:43 098 15 gusting 24 10.6
2014-Oct-24 17:33 093 15 gusting 19 10.6
2014-Oct-24 17:23 086 11 gusting 20 10.6
2014-Oct-24 17:13 094 13 gusting 19 10.6
2014-Oct-24 17:03 084 13 gusting 19 10.6
2014-Oct-24 16:53 092 12 gusting 20 10.6
2014-Oct-24 16:43 096 13 gusting 19 10.6
2014-Oct-24 16:33 091 16 gusting 22 10.6
2014-Oct-24 16:23 086 14 gusting 19 10.6
2014-Oct-24 16:13 092 14 gusting 21 10.6
2014-Oct-24 16:03 095 15 gusting 24 10.6
2014-Oct-24 15:53 096 19 gusting 24 10.6
2014-Oct-24 15:43 084 15 gusting 22 10.6
2014-Oct-24 15:33 091 14 gusting 20 10.6
2014-Oct-24 15:23 080 17 gusting 20 11.1
2014-Oct-24 15:13 082 14 gusting 21 11.1
2014-Oct-24 15:03 088 13 gusting 20 11.1
2014-Oct-24 14:53 088 14 gusting 20 11.1
2014-Oct-24 14:13 071 11 gusting 15 11.7
2014-Oct-24 14:03 084 9 gusting 14 11.7
2014-Oct-24 13:53 078 10 gusting 16 11.7
2014-Oct-24 13:43 078 10 gusting 14 11.7
2014-Oct-24 13:33 057 12 gusting 16 11.7
2014-Oct-24 13:23 087 11 gusting 16 11.7
2014-Oct-24 13:13 088 9 gusting 16 11.7
2014-Oct-24 13:03 091 7 gusting 13 11.7
2014-Oct-24 12:53 098 7 gusting 14 11.7
2014-Oct-24 12:43 104 7 gusting 12 11.1
2014-Oct-24 12:33 098 6 gusting 14 11.1
2014-Oct-24 12:23 130 7 gusting 20 11.1
2014-Oct-24 12:13 101 8 gusting 15 11.1
2014-Oct-24 12:03 087 8 gusting 13 10.6
2014-Oct-24 11:53 101 10 gusting 13 10.6
2014-Oct-24 11:43 086 8 gusting 13 10.6
2014-Oct-24 11:33 093 7 gusting 15 10.6
2014-Oct-24 11:23 106 7 gusting 11 10.6
2014-Oct-24 11:13 092 8 gusting 10 10.6
2014-Oct-24 11:03 094 6 gusting 8 10.0
2014-Oct-24 10:53 080 7 gusting 11 10.0
2014-Oct-24 10:43 078 6 gusting 11 10.0
2014-Oct-24 10:33 079 6 gusting 12 10.0
2014-Oct-24 10:23 075 8 gusting 10 10.0
2014-Oct-24 10:13 071 6 gusting 8 10.0
2014-Oct-24 10:03 067 5 gusting 8 10.0
2014-Oct-24 09:53 068 7 gusting 9 10.0
2014-Oct-24 09:43 068 6 gusting 7 10.0
2014-Oct-24 09:33 076 4 gusting 7 10.0
2014-Oct-24 09:23 080 5 gusting 7 10.0
2014-Oct-24 09:13 076 4 gusting 6 10.0
2014-Oct-24 09:03 086 3 gusting 8 10.0
2014-Oct-24 08:53 138 6 gusting 9 10.0
2014-Oct-24 08:43 078 6 gusting 8 10.0
2014-Oct-24 08:33 109 5 gusting 8 10.0
2014-Oct-24 08:23 168 4 gusting 11 10.0
2014-Oct-24 08:13 135 5 gusting 13 10.0
2014-Oct-24 08:03 143 6 gusting 13 10.0
2014-Oct-24 07:53 090 4 gusting 14 10.0
2014-Oct-24 07:43 122 6 gusting 12 10.0
2014-Oct-24 07:33 167 3 gusting 16 10.0
2014-Oct-24 07:23 167 6 gusting 16 10.0
2014-Oct-24 07:13 164 8 gusting 18 10.0
2014-Oct-24 07:03 172 8 gusting 16 10.0
2014-Oct-24 06:53 146 2 gusting 13 10.0
2014-Oct-24 06:43 117 0 gusting 11 10.0
2014-Oct-24 06:33 077 5 gusting 10 9.4
2014-Oct-24 06:23 108 3 gusting 12 9.4
2014-Oct-24 06:13 064 5 gusting 8 9.4
2014-Oct-24 06:03 005 3 gusting 11 9.4
2014-Oct-24 05:53 334 2 gusting 9 9.4
2014-Oct-24 05:43 086 2 gusting 18 9.4
2014-Oct-24 05:33 172 10 gusting 18 9.4
2014-Oct-24 05:23 153 13 gusting 21 9.4
2014-Oct-24 05:13 134 10 gusting 16 9.4
2014-Oct-24 05:03 134 9 gusting 16 9.4
2014-Oct-24 04:53 144 9 gusting 17 9.4
2014-Oct-24 04:43 165 10 gusting 17 9.4
2014-Oct-24 04:33 153 9 gusting 17 9.4
2014-Oct-24 04:23 134 7 gusting 13 9.4
2014-Oct-24 04:13 118 8 gusting 14 9.4
2014-Oct-24 04:03 161 8 gusting 13 8.9
2014-Oct-24 03:53 161 2 gusting 13 8.9
2014-Oct-24 03:43 199 8.9
2014-Oct-24 03:33 094 1 gusting 7 8.9
2014-Oct-24 03:23 106 0 gusting 3 8.9
2014-Oct-24 03:13 097 2 gusting 6 8.9
2014-Oct-24 03:03 123 1 gusting 4 8.9
2014-Oct-24 02:53 099 1 gusting 3 8.9
2014-Oct-24 02:43 099 1 gusting 3 8.3
2014-Oct-24 02:33 103 8.3
2014-Oct-24 02:23 103 8.9
2014-Oct-24 02:13 103 8.9
2014-Oct-24 02:03 103 0 gusting 3 8.9
2014-Oct-24 01:53 075 8.9
2014-Oct-24 01:43 063 0 gusting 5 8.9
2014-Oct-24 01:33 163 1 gusting 5 8.9
2014-Oct-24 01:23 176 3 gusting 5 8.9
2014-Oct-24 01:13 221 0 gusting 3 8.9
2014-Oct-24 01:03 218 1 gusting 4 8.9
2014-Oct-24 00:53 215 8.9
2014-Oct-24 00:43 149 3 gusting 8 8.9
2014-Oct-24 00:33 144 6 gusting 11 8.9
2014-Oct-24 00:23 159 4 gusting 13 8.9
2014-Oct-24 00:13 142 6 gusting 12 8.9
2014-Oct-24 00:03 155 7 gusting 13 8.9
2014-Oct-23 23:53 151 10 gusting 14 8.9
2014-Oct-23 23:43 151 8 gusting 13 8.3
2014-Oct-23 23:33 152 9 gusting 12 8.3
2014-Oct-23 23:23 141 6 gusting 10 8.3
2014-Oct-23 23:13 162 4 gusting 11 8.3
2014-Oct-23 23:03 229 2 gusting 10 8.3
2014-Oct-23 22:53 175 4 gusting 7 8.3
2014-Oct-23 22:43 200 8.3
2014-Oct-23 22:33 232 2 gusting 6 8.3
2014-Oct-23 22:23 179 8.3
2014-Oct-23 22:13 180 1 gusting 3 8.3
2014-Oct-23 22:03 179 8.3
2014-Oct-23 21:53 179 0 gusting 5 8.3
2014-Oct-23 21:43 104 1 gusting 4 8.3
2014-Oct-23 21:33 174 1 gusting 2 8.3
2014-Oct-23 21:23 174 8.3
2014-Oct-23 21:13 173 8.3
2014-Oct-23 21:03 173 8.3
2014-Oct-23 20:53 174 8.9
2014-Oct-23 20:43 173 0 gusting 2 8.9
2014-Oct-23 20:33 173 0 gusting 2 8.9
2014-Oct-23 20:23 173 1 gusting 3 8.9
2014-Oct-23 20:13 174 0 gusting 3 8.9
2014-Oct-23 20:03 174 2 gusting 5 9.4
2014-Oct-23 19:53 182 4 gusting 6 9.4
2014-Oct-23 19:43 173 3 gusting 6 9.4
2014-Oct-23 19:33 162 3 gusting 6 9.4
2014-Oct-23 19:23 155 4 gusting 6 9.4
2014-Oct-23 19:13 178 3 gusting 8 9.4
2014-Oct-23 19:03 184 5 gusting 7 10.0
2014-Oct-23 18:53 174 2 gusting 7 10.0
2014-Oct-23 18:23 172 4 gusting 8 10.0
2014-Oct-23 18:13 197 6 gusting 9 10.0
2014-Oct-23 18:03 148 3 gusting 9 10.0
2014-Oct-23 17:53 188 3 gusting 13 10.0
2014-Oct-23 17:43 146 6 gusting 10 10.0
2014-Oct-23 17:33 167 6 gusting 9 10.6
2014-Oct-23 17:23 204 5 gusting 9 10.0
2014-Oct-23 17:13 171 6 gusting 11 10.0
2014-Oct-23 17:03 130 6 gusting 9 10.0
2014-Oct-23 16:53 167 2 gusting 8 10.0
2014-Oct-23 16:43 117 3 gusting 11 10.0
2014-Oct-23 16:33 152 4 gusting 10 9.4
2014-Oct-23 16:23 145 5 gusting 9 9.4
2014-Oct-23 16:13 140 3 gusting 10 9.4
2014-Oct-23 16:03 125 8 gusting 11 9.4
2014-Oct-23 15:53 149 6 gusting 10 9.4
2014-Oct-23 15:43 152 5 gusting 11 9.4
2014-Oct-23 15:33 148 5 gusting 10 10.0
2014-Oct-23 15:23 145 4 gusting 8 9.4
2014-Oct-23 15:13 143 4 gusting 8 9.4
2014-Oct-23 15:03 141 6 gusting 10 9.4
2014-Oct-23 14:53 136 6 gusting 11 10.0
2014-Oct-23 14:43 147 5 gusting 10 10.0
2014-Oct-23 14:33 169 4 gusting 8 10.0
2014-Oct-23 14:23 165 3 gusting 7 10.0
2014-Oct-23 14:13 083 3 gusting 8 9.4
2014-Oct-23 14:03 076 4 gusting 8 9.4
2014-Oct-23 13:53 119 3 gusting 5 9.4
2014-Oct-23 13:43 119 3 gusting 8 9.4
2014-Oct-23 13:33 072 3 gusting 5 9.4
2014-Oct-23 13:23 077 2 gusting 4 8.9
2014-Oct-23 13:13 076 3 gusting 4 8.9
2014-Oct-23 13:03 080 8.9
2014-Oct-23 12:53 080 2 gusting 4 8.3
2014-Oct-23 12:43 120 3 gusting 6 8.3
2014-Oct-23 12:33 171 1 gusting 3 8.9
2014-Oct-23 12:23 170 2 gusting 5 7.8
2014-Oct-23 12:13 188 7.2
2014-Oct-23 12:03 189 6.7
2014-Oct-23 11:53 189 5.6
2014-Oct-23 11:43 189 4.4
2014-Oct-23 11:33 189 3 gusting 4 3.3
2014-Oct-23 11:23 189 1 gusting 4 3.3
2014-Oct-23 11:13 189 3 gusting 4 2.8
2014-Oct-23 11:03 189 1 gusting 4 2.2
2014-Oct-23 10:53 188 2 gusting 3 2.2
2014-Oct-23 10:43 188 3 gusting 4 2.2
2014-Oct-23 10:33 189 3 gusting 4 1.7
2014-Oct-23 10:23 189 1 gusting 3 2.2
2014-Oct-23 10:13 188 3 gusting 4 1.7
2014-Oct-23 10:03 189 2 gusting 4 1.7
2014-Oct-23 09:53 189 3 gusting 3 2.2
2014-Oct-23 09:43 189 1 gusting 3 2.2
2014-Oct-23 09:33 189 2 gusting 3 2.8
2014-Oct-23 09:23 189 2 gusting 4 2.8
2014-Oct-23 09:13 189 2 gusting 5 2.8
2014-Oct-23 09:03 188 2 gusting 3 2.8
2014-Oct-23 08:53 188 2 gusting 4 2.8
2014-Oct-23 08:43 188 3 gusting 4 2.8
2014-Oct-23 08:33 188 1 gusting 2 3.3
2014-Oct-23 08:23 189 3.3
2014-Oct-23 08:13 189 3.3
2014-Oct-23 08:03 189 1 gusting 3 3.3
2014-Oct-23 07:53 189 1 gusting 3 3.3
2014-Oct-23 07:43 189 1 gusting 3 3.9
2014-Oct-23 07:33 189 2 gusting 3 3.9
2014-Oct-23 07:23 189 1 gusting 4 4.4
2014-Oct-23 07:13 189 2 gusting 4 4.4
2014-Oct-23 07:03 188 3 gusting 4 4.4
2014-Oct-23 06:53 188 1 gusting 3 4.4
2014-Oct-23 06:43 188 1 gusting 3 5.0
2014-Oct-23 06:33 188 1 gusting 3 5.0
2014-Oct-23 06:23 188 1 gusting 9 6.1
2014-Oct-23 06:13 180 4 gusting 10 6.7
2014-Oct-23 06:03 172 4 gusting 8 6.1
2014-Oct-23 05:53 176 4 gusting 7 6.7
2014-Oct-23 05:43 173 6 gusting 9 6.7
2014-Oct-23 05:33 168 6 gusting 8 6.7
2014-Oct-23 05:23 169 4 gusting 7 6.7
2014-Oct-23 05:13 178 5 gusting 8 6.7
2014-Oct-23 05:03 157 5 gusting 8 6.7
2014-Oct-23 04:53 171 6 gusting 8 6.7
2014-Oct-23 04:43 175 5 gusting 9 6.7
2014-Oct-23 04:33 175 4 gusting 9 6.7
2014-Oct-23 04:23 163 6 gusting 8 6.7
2014-Oct-23 04:13 172 7 gusting 10 6.1
2014-Oct-23 04:03 159 6 gusting 9 6.1